sim
Sign-in with your pilot id or email,
or register
Callsign
Passwort

Schedule Details

Flight Number: RYR5714 (4)
Departure: Weeze Airport (EDLV) at 16:10
Arrival: Thessaloniki International Airport (LGTS) at 18:55
Route: Ryanair Passenger Schedule. Enter filed route here before submitting Pirep.

Weather Information
Getting current METAR information for EDLV 192150Z 04004KT 020V080 CAVOK 17/05 Q1029
Getting current METAR information for LGTS 192150Z 03005KT 9999 FEW020 13/09 Q1023 NOSIG

Schedule Frequency

Route Map